Zurück zum Katalog

STARLINK-4371

AktivKommunikationSSO
NORAD 53232·PAYLOAD·🇺🇸 United States

Gestartet Jul 22, 2022 von Vandenberg Space Force Base

Loading…

Nächste Überflüge (nächste 24 Stunden)

TLE

AktuellSource: CelesTrak SupGP

Epoche: Sep 14, 2026, 22:02 UTC

1 53232C 22084AV  26257.91854167 -.00021019  00000+0 -65285-3 0  2574
2 53232  97.2834 312.7693 0001477  88.7199  52.8722 15.33432218    11

Verfolge STARLINK-4371 in Echtzeit mit AllMySat

Download on the App Store